Tracking 19920 objects as of 15-Oct-2019
HD Live streaming from Space Station
objects crossing your sky now

THORAD DELTA 1 DEB

Track THORAD DELTA 1 DEB now!
10-day predictions


NORAD ID: 42618
Int'l Code: 1974-089GK
Perigee: 1,505.2 km
Apogee: 1,577.3 km
Inclination: 102.1 °
Period: 116.7 minutes
Semi major axis: 7912 km
RCS: Unknown
Launch date: November 15, 1974
Source: United States (US)
Launch site: AIR FORCE WESTERN TEST RANGE (AFWTR)

Note: This is SATELLITE DEBRIS
aabbcc
Your satellite tracking list
Your tracking list is empty




NASA's NSSDC Master Catalog

Two Line Element Set (TLE):
1 42618U 74089GK  17309.38881281 -.00000033 +00000-0 +93635-4 0  9995
2 42618 102.0802 278.8327 0045540 207.2713 152.5954 12.33537251611172
Source of the keplerian elements: AFSPC